Location: Bonaustraße
(48.4603°N, 11.9280°E)
Time: 10:16:30
(UTC+02:00)

STRAND 1 - Pass Details

Date: 02 August 2021
Orbit: 768 x 781 km, 98.4° (Epoch: 27 September)

Event Time Altitude Azimuth Distance (km) Brightness Sun altitude
Rises 22:36:15 0° 359° (N) 3,256 ? -14.8°
Reaches altitude 10° 22:40:03 10° 330° (NNW) 2,321 ? -15.2°
Maximum altitude 22:41:58 12° 308° (NW) 2,170 ? -15.4°
Drops below altitude 10° 22:43:53 10° 285° (WNW) 2,315 ? -15.6°
Sets 22:47:40 0° 256° (WSW) 3,235 ? -15.9°
